Change the Weather History Date:

Tuesday, May 6, 2014

  Actual Average (KDMN) Record (KDMN)
Temperature  
Mean Temperature 60 °F 66 °F  
Max Temperature 77 °F 84 °F 96 °F (1989)
Min Temperature 42 °F 48 °F 32 °F (1950)
Degree Days  
Heating Degree Days 6    
Growing Degree Days 10 (Base 50)    
Moisture  
Dew Point 12 °F    
Average Humidity 14    
Maximum Humidity 31    
Minimum Humidity 7    
Precipitation  
Precipitation 0.00 in 0.03 in 0.20 in (1969)
Month to date precipitation 0.18  
Year to date precipitation 2.16  
Sea Level Pressure  
Sea Level Pressure 29.91 in    
Wind  
Wind Speed 12 mph (West)    
Max Wind Speed 29 mph    
Max Gust Speed 39 mph    
Visibility 10 miles    
Events      
T = Trace of Precipitation, MM = Missing Value Source: NWS Daily Summary

Daily Weather History Graph

Daily Weather History Graph

Search for Another Location

Airport or City:

Trip Planner

Search our weather history database for the weather conditions in past years. The results will help you decide how hot, cold, wet, or windy it might be!

Date:

Astronomy

May. 06, 2014 Rise Set
Actual Time 6:21 AM MDT 7:57 PM MDT
Civil Twilight 5:54 AM MDT 8:24 PM MDT
Nautical Twilight 5:22 AM MDT 8:56 PM MDT
Astronomical Twilight 4:49 AM MDT 9:29 PM MDT
Moon 12:35 PM MDT (5/6) 1:21 AM MDT (5/6)
Length of Visible Light 14h 29m
Length of Day
13h 36m
Waxing Crescent, 46% of the Moon is Illuminated
May 6
Waxing Crescent
May 6
First Quarter
May 14
Full
May 21
Last Quarter
May 28
New

Hourly Weather History & Observations

Time (MDT) Temp. Windchill Dew Point Humidity Pressure Visibility Wind Dir Wind Speed Gust Speed Precip Events Conditions
12:15 AM 53.6 °F - 12.2 °F 19% 30.03 in 10.0 mi NW 9.2 mph - N/A   Clear
12:35 AM 50.0 °F - 10.4 °F 20% 30.02 in 10.0 mi NW 9.2 mph - N/A   Clear
12:55 AM 51.8 °F - 12.2 °F 21% 30.02 in 10.0 mi NW 9.2 mph - N/A   Clear
1:15 AM 50.0 °F - 10.4 °F 20% 30.02 in 10.0 mi NW 6.9 mph - N/A   Clear
1:35 AM 46.4 °F 42.4 °F 10.4 °F 23% 30.01 in 10.0 mi NW 8.1 mph - N/A   Clear
1:55 AM 46.4 °F 42.4 °F 10.4 °F 23% 30.00 in 10.0 mi NW 8.1 mph - N/A   Clear
5:55 AM 46.4 °F 41.1 °F 14.0 °F 27% 29.98 in 10.0 mi NNW 11.5 mph - N/A   Clear
6:15 AM 42.8 °F 38.0 °F 14.0 °F 31% 29.99 in 10.0 mi NNW 8.1 mph - N/A   Clear
6:35 AM 42.8 °F 38.0 °F 12.2 °F 29% 30.00 in 10.0 mi NW 8.1 mph - N/A   Clear
6:55 AM 44.6 °F 40.2 °F 14.0 °F 29% 30.00 in 10.0 mi NW 8.1 mph - N/A   Clear
7:15 AM 50.0 °F - 15.8 °F 26% 30.00 in 10.0 mi NW 9.2 mph - N/A   Clear
8:15 AM 60.8 °F - 17.6 °F 19% 30.00 in 10.0 mi WNW 10.4 mph - N/A   Clear
8:35 AM 62.6 °F - 17.6 °F 18% 30.00 in 10.0 mi West 8.1 mph - N/A   Clear
8:55 AM 64.4 °F - 17.6 °F 16% 29.99 in 10.0 mi West 12.7 mph 17.3 mph N/A   Clear
9:15 AM 64.4 °F - 17.6 °F 16% 29.99 in 10.0 mi West 12.7 mph 18.4 mph N/A   Clear
9:35 AM 64.4 °F - 17.6 °F 16% 29.99 in 10.0 mi WSW 10.4 mph 20.7 mph N/A   Clear
9:55 AM 66.2 °F - 17.6 °F 15% 29.99 in 10.0 mi WSW 16.1 mph 25.3 mph N/A   Clear
10:15 AM 66.2 °F - 17.6 °F 15% 29.98 in 10.0 mi WSW 17.3 mph 24.2 mph N/A   Clear
10:35 AM 66.2 °F - 17.6 °F 15% 29.98 in 10.0 mi West 17.3 mph 24.2 mph N/A   Clear
10:55 AM 68.0 °F - 17.6 °F 15% 29.98 in 10.0 mi WSW 12.7 mph 24.2 mph N/A   Clear
11:15 AM 68.0 °F - 17.6 °F 15% 29.98 in 10.0 mi WSW 13.8 mph 26.5 mph N/A   Clear
11:35 AM 68.0 °F - 17.6 °F 15% 29.97 in 10.0 mi WSW 15.0 mph 20.7 mph N/A   Clear
11:55 AM 69.8 °F - 17.6 °F 14% 29.96 in 10.0 mi West 9.2 mph 16.1 mph N/A   Clear
12:15 PM 71.6 °F - 15.8 °F 12% 29.95 in 10.0 mi WSW 15.0 mph 20.7 mph N/A   Clear
12:35 PM 71.6 °F - 15.8 °F 12% 29.94 in 10.0 mi WSW 10.4 mph 19.6 mph N/A   Clear
12:55 PM 71.6 °F - 17.6 °F 13% 29.93 in 10.0 mi WSW 17.3 mph 26.5 mph N/A   Clear
1:15 PM 71.6 °F - 15.8 °F 12% 29.92 in 10.0 mi WSW 11.5 mph 27.6 mph N/A   Clear
1:35 PM 73.4 °F - 15.8 °F 11% 29.91 in 10.0 mi West 11.5 mph 28.8 mph N/A   Clear
1:55 PM 73.4 °F - 15.8 °F 11% 29.90 in 10.0 mi West 19.6 mph 28.8 mph N/A   Clear
2:15 PM 75.2 °F - 15.8 °F 11% 29.89 in 10.0 mi SW 16.1 mph 31.1 mph N/A   Clear
2:35 PM 75.2 °F - 15.8 °F 11% 29.88 in 10.0 mi West 24.2 mph 33.4 mph N/A   Clear
2:55 PM 75.2 °F - 15.8 °F 11% 29.87 in 10.0 mi WSW 23.0 mph 32.2 mph N/A   Clear
3:15 PM 75.2 °F - 15.8 °F 11% 29.86 in 10.0 mi WSW 28.8 mph 39.1 mph N/A   Clear
3:35 PM 75.2 °F - 15.8 °F 11% 29.85 in 10.0 mi WSW 17.3 mph 28.8 mph N/A   Clear
3:55 PM 77.0 °F - 15.8 °F 10% 29.83 in 10.0 mi SW 20.7 mph 31.1 mph N/A   Clear
4:15 PM 77.0 °F - 15.8 °F 10% 29.83 in 10.0 mi WSW 20.7 mph 31.1 mph N/A   Clear
4:35 PM 77.0 °F - 14.0 °F 9% 29.82 in 10.0 mi West 25.3 mph 39.1 mph N/A   Clear
4:55 PM 77.0 °F - 10.4 °F 8% 29.81 in 10.0 mi West 23.0 mph 34.5 mph N/A   Clear
5:15 PM 77.0 °F - 10.4 °F 8% 29.81 in 10.0 mi WSW 24.2 mph 33.4 mph N/A   Clear
5:35 PM 77.0 °F - 10.4 °F 8% 29.81 in 10.0 mi WSW 18.4 mph 32.2 mph N/A   Clear
5:55 PM 75.2 °F - 10.4 °F 8% 29.81 in 10.0 mi WSW 18.4 mph 31.1 mph N/A   Clear
6:15 PM 75.2 °F - 10.4 °F 8% 29.81 in 10.0 mi West 19.6 mph 34.5 mph N/A   Clear
6:35 PM 75.2 °F - 8.6 °F 8% 29.81 in 10.0 mi WSW 20.7 mph 28.8 mph N/A   Clear
6:55 PM 73.4 °F - 6.8 °F 8% 29.81 in 10.0 mi West 19.6 mph 31.1 mph N/A   Clear
7:15 PM 71.6 °F - 5.0 °F 7% 29.80 in 10.0 mi West 21.9 mph 27.6 mph N/A   Clear
7:35 PM 71.6 °F - 5.0 °F 7% 29.81 in 10.0 mi West 17.3 mph 23.0 mph N/A   Clear
7:55 PM 68.0 °F - 5.0 °F 8% 29.82 in 10.0 mi West 11.5 mph - N/A   Clear
8:15 PM 68.0 °F - 5.0 °F 8% 29.83 in 10.0 mi West 8.1 mph 16.1 mph N/A   Clear
8:35 PM 66.2 °F - 5.0 °F 9% 29.84 in 10.0 mi West 9.2 mph 17.3 mph N/A   Clear
8:55 PM 66.2 °F - 5.0 °F 9% 29.85 in 10.0 mi WSW 6.9 mph - N/A   Clear
9:15 PM 62.6 °F - 5.0 °F 10% 29.85 in 10.0 mi WSW 6.9 mph - N/A   Clear
9:35 PM 62.6 °F - 6.8 °F 11% 29.86 in 10.0 mi West 5.8 mph - N/A   Clear
9:55 PM 59.0 °F - 6.8 °F 13% 29.86 in 10.0 mi West 5.8 mph - N/A   Clear
10:15 PM 57.2 °F - 5.0 °F 12% 29.87 in 10.0 mi WNW 4.6 mph - N/A   Clear
10:35 PM 59.0 °F - 6.8 °F 13% 29.88 in 10.0 mi Calm Calm - N/A   Clear
10:55 PM 59.0 °F - 6.8 °F 13% 29.87 in 10.0 mi Calm Calm - N/A   Clear
11:15 PM 57.2 °F - 6.8 °F 13% 29.87 in 10.0 mi West 4.6 mph - N/A   Clear
11:35 PM 57.2 °F - 8.6 °F 14% 29.87 in 10.0 mi West 6.9 mph - N/A   Clear
11:55 PM 60.8 °F - 10.4 °F 14% 29.87 in 10.0 mi SW 12.7 mph 19.6 mph N/A   Clear